Hourly Data Report for June 21, 2021

SANIRAJAK AIRPORT
NUNAVUT
Current Station Operator: NAVCAN

68°46'33.000" N
81°14'33.000" W
9.10 m
2402354
71293
YUX

Download Data

Hourly Data (June 2021)
Hourly Data Report for June 21, 2021
TIME
LST
Temp Definition
°C
Dew Point Definition
°C
Rel Hum Definition
%
Precip. Amount Definition
mm

Wind Dir Definition
10's deg

Wind Spd Definition
km/h
Visibility Definition
km
Stn Press Definition
kPa
Hmdx Definition


Wind Chill Definition


Weather Definition


00:00 0.9 0.9 100 0.5 7 24 8.1 100.39     Rain, Fog
01:00 0.9 0.9 100 0.0 7 22 4.8 100.36     Rain, Fog
02:00 0.7 0.7 100 0.0 7 21 2.4 100.35     Fog
03:00 0.8 0.8 100 0.2 8 17 2.0 100.32     Rain, Fog
04:00 0.9 0.9 100 0.0 6 17 0.6 100.29     Fog
05:00 0.8 0.8 100 0.0 6 21 1.2 100.22     Rain, Fog
06:00 0.8 0.8 100 0.0 5 18 1.2 100.18     Fog
07:00 0.6 0.6 100 0.0 8 21 0.8 100.17     Rain, Fog
08:00 0.5 0.5 100 0.0 8 18 1.6 100.13     Fog
09:00 0.5 0.5 100 0.0 9 17 4.0 100.09     Snow
10:00 0.5 0.5 100 0.0 10 17 16.1 100.07     Rain
11:00 0.4 0.4 100 0.0 10 17 0.6 100.04     Rain, Fog
12:00 0.6 0.6 100 0.0 10 18 0.4 99.97     Rain, Fog
13:00 0.8 0.8 100 0.0 10 17 1.6 99.95     Snow
14:00 1.0 1.0 100 0.2 11 17 11.3 99.94     Snow
15:00 0.9 0.8 99 0.2 11 13 4.8 99.89     Snow
16:00 0.8 0.7 99 0.0 10 17 16.1 99.88     Rain
17:00 0.9 0.8 99 0.2 11 21 6.4 99.83     Snow
18:00 0.7 0.6 99 0.0 11 18 14.5 99.81     Rain
19:00 0.4 0.4 100 0.2 10 18 4.0 99.76     Snow
20:00 0.5 0.5 100 1.0 9 22 11.3 99.64     Rain
21:00 0.6 0.6 100 1.0 8 26 12.9 99.51     Rain
22:00 1.1 1.1 100 1.0 10 35 9.7 99.37     Rain, Fog
23:00 1.2 1.1 99 1.2 11 35 9.7 99.29     Rain, Fog

Notes on Data Quality.

Legend

  • E = Estimated
  • M = Missing
  • NA = Not Available*
  • [empty] = Indicates an unobserved value
Date modified: